User: anonymous   Login
Location: Unspecified
(0.0000°N, 0.0000°E)
Time: 03:04:37
(UTC+00:00)
Language:

USA 268 - Orbit

View from above orbital plane
View from above orbital plane
View from above satellite
View from above satellite

Ground track
Ground track

The orbit data is extracted from the following two-line orbital elements,

1 41584U 16036A   18078.19584254 0.00000000  00000-0  00000-0 0    03
2 41584   7.1733 352.1218 0051782  35.9704 324.4643  1.00270000    04
Epoch (UTC): 19 March 2018 04:42:00
Eccentricity: 0.0051782
inclination: 7.1733°
perigee height: 35568 km
apogee height: 36005 km
right ascension of ascending node: 352.1218°
argument of perigee: 35.9704°
revolutions per day: 1.00270000
mean anomaly at epoch: 324.4643°
orbit number at epoch: 0

The dashed part of the orbit path shows where the satellite is in the earth's shadow,  

DLR